User: anonymous   Login
Location: Trondheim
(63.4170°N, 10.4170°E)
Time: 14:05:10
(UTC+02:00)
Language:

Iridium 82 - Orbit

View from above orbital plane
View from above orbital plane
View from above satellite
View from above satellite

Ground track
Ground track

The orbit data is extracted from the following two-line orbital elements,

1 25467U 98051A   17085.91663919 +.00000070 +00000-0 +18026-4 0  9990
2 25467 086.3935 056.5254 0002317 096.3398 263.8061 14.34213625974825
Epoch (UTC): 26 March 2017 21:59:57
Eccentricity: 0.0002317
inclination: 86.3935°
perigee height: 776 km
apogee height: 779 km
right ascension of ascending node: 56.5254°
argument of perigee: 96.3398°
revolutions per day: 14.34213625
mean anomaly at epoch: 263.8061°
orbit number at epoch: 97482

The dashed part of the orbit path shows where the satellite is in the earth's shadow,  

DLR